FW8455 Weather Reports


Display with metric or nautical units.
time (UTC)temp
F
wind
direction
speed
MPH
gust
MPH
rain 1hr
in
rain 24hr
in
rain mn
in
humidity
%
barometer
mb
20260508225400 49 203 18.0 25.0 0.00 0.00 0.00 57 1010.9
20260508224903 50 180 14.0 20.0 0.00 0.00 0.00 56 1010.8
20260508224341 50 180 13.0 22.0 0.00 0.00 0.00 55 1010.4
20260508223830 50 158 11.0 22.0 0.00 0.00 0.00 55 1010.4
20260508222810 52 180 15.0 22.0 0.00 0.00 0.00 52 1010.0
20260508222300 52 203 8.0 13.0 0.00 0.00 0.00 52 1009.8
20260508221750 52 180 7.0 14.0 0.00 0.00 0.00 52 1009.8
20260508221240 52 180 6.0 14.0 0.00 0.00 0.00 52 1009.6
20260508220729 52 180 7.0 11.0 0.00 0.00 0.00 52 1009.6
20260508220220 52 180 8.0 11.0 0.00 0.00 0.00 52 1009.2
20260508215710 52 158 5.0 11.0 0.00 0.00 0.00 52 1009.2
20260508215159 53 158 4.0 8.0 0.00 0.00 0.00 51 1008.9
20260508214139 53 180 1.0 7.0 0.00 0.00 0.00 50 1008.8
20260508213629 53 158 2.0 9.0 0.00 0.00 0.00 50 1008.8
20260508212608 54 180 5.0 11.0 0.00 0.00 0.00 48 1008.8
20260508212059 54 180 7.0 11.0 0.00 0.00 0.00 48 1008.4
20260508211549 55 158 5.0 11.0 0.00 0.00 0.00 47 1008.4
20260508211038 55 180 6.0 11.0 0.00 0.00 0.00 46 1008.2
20260508210528 55 158 8.0 11.0 0.00 0.00 0.00 46 1008.2
20260508210018 56 158 6.0 11.0 0.00 0.00 0.00 45 1008.0
20260508205508 56 158 8.0 11.0 0.00 0.00 0.00 44 1007.8
20260508204957 56 158 5.0 11.0 0.00 0.00 0.00 44 1007.9
20260508204448 57 158 6.0 11.0 0.00 0.00 0.00 42 1008.1
20260508203938 57 158 7.0 11.0 0.00 0.00 0.00 42 1008.1
20260508202407 58 180 4.0 11.0 0.00 0.00 0.00 40 1007.8
20260508201857 57 158 4.0 11.0 0.00 0.00 0.00 43 1007.7
20260508200838 58 180 8.0 13.0 0.00 0.00 0.00 41 1008.1
20260508195308 58 180 8.0 14.0 0.00 0.00 0.00 41 1008.1
20260508194757 59 180 9.0 14.0 0.00 0.00 0.00 40 1008.1
20260508194246 59 203 10.0 14.0 0.00 0.00 0.00 40 1008.0
20260508193737 59 180 9.0 11.0 0.00 0.00 0.00 40 1008.1
20260508193226 60 225 5.0 14.0 0.00 0.00 0.00 40 1007.8
20260508190126 59 203 8.0 20.0 0.00 0.00 0.00 41 1007.8
20260508185105 60 203 8.0 15.0 0.00 0.00 0.00 41 1008.4
20260508184556 58 225 9.0 15.0 0.00 0.00 0.00 41 1008.3
20260508184045 58 203 8.0 17.0 0.00 0.00 0.00 42 1008.3
20260508183535 60 203 8.0 17.0 0.00 0.00 0.00 40 1008.4
20260508183024 59 203 8.0 15.0 0.00 0.00 0.00 41 1008.2
20260508182515 59 203 7.0 14.0 0.00 0.00 0.00 41 1008.4
20260508181454 58 203 10.0 16.0 0.00 0.00 0.00 42 1008.4
20260508180435 59 180 12.0 21.0 0.00 0.00 0.00 42 1008.6
20260508175925 59 203 8.0 21.0 0.00 0.00 0.00 42 1008.9
20260508175414 59 203 17.0 21.0 0.00 0.00 0.00 41 1008.6
20260508174904 58 225 9.0 20.0 0.00 0.00 0.00 42 1009.0
20260508173843 59 203 8.0 22.0 0.00 0.00 0.00 42 1009.2
20260508173333 58 225 13.0 22.0 0.00 0.00 0.00 43 1009.3
20260508172824 58 248 18.0 22.0 0.00 0.00 0.00 43 1009.2
20260508172313 58 225 8.0 18.0 0.00 0.00 0.00 43 1009.6
20260508171804 58 180 11.0 30.0 0.00 0.00 0.00 42 1009.6
20260508170743 57 225 20.0 25.0 0.00 0.00 0.00 43 1009.8
20260508170233 57 203 15.0 21.0 0.00 0.00 0.00 43 1010.0
20260508165723 58 225 15.0 21.0 0.00 0.00 0.00 43 1010.1
20260508165213 58 225 13.0 24.0 0.00 0.00 0.00 43 1010.2
20260508164702 57 203 17.0 24.0 0.00 0.00 0.00 44 1010.2
20260508163642 57 225 12.0 29.0 0.00 0.00 0.00 44 1010.3
20260508162623 56 225 18.0 29.0 0.00 0.00 0.00 41 1010.4
20260508162114 57 225 21.0 30.0 0.00 0.00 0.00 41 1010.4
20260508161602 57 225 21.0 30.0 0.00 0.00 0.00 40 1010.5
20260508161052 56 225 21.0 32.0 0.00 0.00 0.00 41 1010.4
20260508160543 56 203 19.0 34.0 0.00 0.00 0.00 42 1010.5
20260508160031 57 225 21.0 34.0 0.00 0.00 0.00 40 1010.7
20260508155521 56 203 21.0 27.0 0.00 0.00 0.00 41 1010.7
20260508155011 57 225 17.0 27.0 0.00 0.00 0.00 39 1010.7
20260508154501 56 203 16.0 29.0 0.00 0.00 0.00 38 1010.7
20260508153952 55 203 20.0 31.0 0.00 0.00 0.00 38 1010.9
20260508153441 55 203 19.0 31.0 0.00 0.00 0.00 39 1010.8
20260508152931 55 225 26.0 31.0 0.00 0.00 0.00 38 1010.8
20260508151401 54 203 24.0 31.0 0.00 0.00 0.00 37 1011.1
20260508150850 54 203 22.0 34.0 0.00 0.00 0.00 36 1011.2
20260508150340 54 203 25.0 34.0 0.00 0.00 0.00 36 1011.5
20260508145830 54 203 19.0 31.0 0.00 0.00 0.00 36 1011.4
20260508145320 54 225 19.0 31.0 0.00 0.00 0.00 36 1011.2
20260508144810 54 225 21.0 34.0 0.00 0.00 0.00 35 1011.1
20260508144300 53 225 24.0 34.0 0.00 0.00 0.00 35 1011.3
20260508143750 53 225 21.0 34.0 0.00 0.00 0.00 34 1011.5
20260508143239 52 180 23.0 29.0 0.00 0.00 0.00 35 1011.7
20260508142730 52 203 21.0 27.0 0.00 0.00 0.00 36 1011.8
20260508142220 52 180 20.0 30.0 0.00 0.00 0.00 35 1011.8
20260508141712 52 203 21.0 30.0 0.00 0.00 0.00 35 1011.8
20260508140649 52 203 17.0 30.0 0.00 0.00 0.00 34 1012.0
20260508135629 51 225 24.0 31.0 0.00 0.00 0.00 35 1011.9
20260508135119 51 203 21.0 32.0 0.00 0.00 0.00 35 1012.0
20260508134609 51 225 19.0 36.0 0.00 0.00 0.00 35 1011.8
20260508134059 48 203 26.0 36.0 0.00 0.00 0.00 36 1011.9
20260508133548 48 225 21.0 34.0 0.00 0.00 0.00 36 1011.9
20260508133041 48 225 24.0 34.0 0.00 0.00 0.00 36 1011.6
20260508132528 48 203 22.0 34.0 0.00 0.00 0.00 36 1011.7
20260508132018 49 225 23.0 34.0 0.00 0.00 0.00 36 1011.7
20260508131512 49 225 22.0 31.0 0.00 0.00 0.00 37 1011.6
20260508130958 49 225 24.0 31.0 0.00 0.00 0.00 37 1011.5
20260508130448 49 225 17.0 31.0 0.00 0.00 0.00 38 1011.4
20260508125938 48 203 19.0 30.0 0.00 0.00 0.00 37 1011.7
20260508124917 47 225 15.0 29.0 0.00 0.00 0.00 42 1011.7
20260508123859 47 225 19.0 29.0 0.00 0.00 0.00 44 1011.9
20260508123347 46 225 18.0 24.0 0.00 0.00 0.00 46 1012.0
20260508122838 45 248 16.0 23.0 0.00 0.00 0.00 48 1011.8
20260508122327 46 225 15.0 20.0 0.00 0.00 0.00 46 1012.0
20260508121817 45 248 12.0 22.0 0.00 0.00 0.00 49 1012.0
20260508121309 44 248 9.0 23.0 0.00 0.00 0.00 49 1012.1
20260508120757 44 248 15.0 23.0 0.00 0.00 0.00 48 1012.1
20260508120247 44 225 14.0 22.0 0.00 0.00 0.00 50 1012.0
20260508115736 44 225 14.0 22.0 0.00 0.00 0.00 49 1011.8
20260508115226 44 225 11.0 21.0 0.00 0.00 0.00 49 1011.9
20260508114716 44 225 12.0 21.0 0.00 0.00 0.00 50 1011.7
20260508114206 43 225 11.0 18.0 0.00 0.00 0.00 52 1011.7
20260508113656 43 248 13.0 18.0 0.00 0.00 0.00 52 1011.5
20260508113145 43 225 14.0 17.0 0.00 0.00 0.00 52 1011.7
20260508112126 42 225 10.0 18.0 0.00 0.00 0.00 52 1011.6
20260508111616 42 225 11.0 22.0 0.00 0.00 0.00 51 1011.8
20260508110556 43 225 12.0 25.0 0.00 0.00 0.00 50 1011.7
20260508110047 43 225 15.0 25.0 0.00 0.00 0.00 50 1011.7
20260508105535 43 225 17.0 23.0 0.00 0.00 0.00 50 1011.7
20260508105025 43 225 15.0 25.0 0.00 0.00 0.00 51 1011.5
20260508104009 43 225 14.0 22.0 0.00 0.00 0.00 51 1011.4
20260508103455 43 225 16.0 23.0 0.00 0.00 0.00 51 1011.5
20260508102944 42 225 15.0 23.0 0.00 0.00 0.00 52 1011.6
20260508101925 42 225 13.0 25.0 0.00 0.00 0.00 53 1011.6
20260508101414 42 225 15.0 24.0 0.00 0.00 0.00 53 1011.5
20260508100354 42 225 13.0 25.0 0.00 0.00 0.00 53 1011.4
20260508095333 42 225 19.0 24.0 0.00 0.00 0.00 52 1011.3
20260508094823 42 225 14.0 24.0 0.00 0.00 0.00 53 1011.4
20260508094322 42 225 15.0 23.0 0.00 0.00 0.00 52 1011.1
20260508093803 42 225 17.0 22.0 0.00 0.00 0.00 52 1011.3
20260508093253 42 248 13.0 21.0 0.00 0.00 0.00 52 1011.3
20260508092743 42 225 15.0 21.0 0.00 0.00 0.00 51 1011.3
20260508092233 42 225 12.0 22.0 0.00 0.00 0.00 51 1011.2
20260508091212 43 225 15.0 24.0 0.00 0.00 0.00 51 1011.2
20260508090152 43 225 15.0 22.0 0.00 0.00 0.00 49 1011.4
20260508085644 43 225 15.0 22.0 0.00 0.00 0.00 49 1011.2
20260508085133 43 248 14.0 27.0 0.00 0.00 0.00 49 1011.2
20260508084623 43 225 14.0 27.0 0.00 0.00 0.00 49 1011.1
20260508084112 43 203 15.0 22.0 0.00 0.00 0.00 49 1010.9
20260508083602 43 225 14.0 22.0 0.00 0.00 0.00 49 1011.0
20260508082032 44 225 15.0 23.0 0.00 0.00 0.00 49 1010.9
20260508081522 44 225 16.0 23.0 0.00 0.00 0.00 48 1010.9
20260508081012 43 203 15.0 23.0 0.00 0.00 0.00 49 1010.9
20260508080502 43 225 14.0 21.0 0.00 0.00 0.00 49 1010.9
20260508075951 43 225 12.0 23.0 0.00 0.00 0.00 49 1010.8
20260508075441 43 225 15.0 23.0 0.00 0.00 0.00 49 1010.8
20260508074931 43 225 10.0 18.0 0.00 0.00 0.00 50 1010.7
20260508074421 43 225 12.0 20.0 0.00 0.00 0.00 50 1010.5
20260508073911 43 203 14.0 21.0 0.00 0.00 0.00 49 1010.5
20260508073400 43 225 11.0 22.0 0.00 0.00 0.00 50 1010.5
20260508072851 43 203 13.0 22.0 0.00 0.00 0.00 49 1010.8
20260508072341 43 225 12.0 22.0 0.00 0.00 0.00 49 1010.8
20260508071830 44 225 12.0 23.0 0.00 0.00 0.00 48 1010.7
20260508071320 44 225 15.0 23.0 0.00 0.00 0.00 47 1010.8
20260508065750 44 248 15.0 24.0 0.00 0.00 0.00 46 1010.9
20260508065239 44 225 17.0 24.0 0.00 0.00 0.00 46 1010.9
20260508064729 44 203 15.0 25.0 0.00 0.00 0.00 47 1010.5
20260508063709 44 225 15.0 23.0 0.00 0.00 0.00 46 1010.8
20260508063159 44 203 16.0 22.0 0.00 0.00 0.00 47 1010.8
20260508062649 44 225 14.0 24.0 0.00 0.00 0.00 47 1010.7
20260508062139 44 203 15.0 24.0 0.00 0.00 0.00 47 1010.5
20260508061629 44 203 11.0 21.0 0.00 0.00 0.00 47 1010.8
20260508061119 44 225 13.0 23.0 0.00 0.00 0.00 47 1010.5
20260508060609 44 225 16.0 23.0 0.00 0.00 0.00 46 1010.9
20260508055549 44 225 10.0 20.0 0.00 0.00 0.00 47 1011.1
20260508055038 44 203 14.0 20.0 0.00 0.00 0.00 45 1011.1
20260508054528 44 225 11.0 20.0 0.00 0.00 0.00 45 1011.2
20260508054018 44 225 11.0 20.0 0.00 0.00 0.00 45 1011.3
20260508053507 45 225 11.0 18.0 0.00 0.00 0.00 45 1011.4
20260508052958 45 225 12.0 18.0 0.00 0.00 0.00 45 1011.6
20260508052447 45 225 13.0 18.0 0.00 0.00 0.00 45 1011.6
20260508051937 44 225 10.0 16.0 0.00 0.00 0.00 46 1011.6
20260508051430 44 225 9.0 16.0 0.00 0.00 0.00 46 1011.7
20260508050918 44 225 7.0 13.0 0.00 0.00 0.00 47 1011.8
20260508050408 44 225 5.0 0.0 0.00 0.00 0.00 47 1012.2
20260508050158 43 225 6.0 0.0 0.00 0.00 0.00 47 1012.1
20260508045028 44 225 5.0 13.0 0.00 0.00 0.00 46 1012.1
20260508044527 44 225 8.0 17.0 0.00 0.00 0.00 45 1012.7
20260508044007 45 225 8.0 18.0 0.00 0.00 0.00 44 1012.3
20260508043457 46 203 11.0 18.0 0.00 0.00 0.00 43 1012.1
20260508042947 45 225 10.0 16.0 0.00 0.00 0.00 44 1012.2
20260508042437 45 225 9.0 14.0 0.00 0.00 0.00 44 1012.3
20260508041417 46 225 11.0 18.0 0.00 0.00 0.00 43 1012.6
20260508040907 46 203 9.0 16.0 0.00 0.00 0.00 43 1012.4
20260508040356 46 225 11.0 17.0 0.00 0.00 0.00 43 1012.3
20260508035847 46 225 11.0 17.0 0.00 0.00 0.00 43 1012.2
20260508035336 46 225 11.0 18.0 0.00 0.00 0.00 42 1012.1
20260508034826 47 203 14.0 21.0 0.00 0.00 0.00 41 1012.2
20260508034317 47 203 14.0 21.0 0.00 0.00 0.00 40 1011.9
20260508033806 47 225 11.0 16.0 0.00 0.00 0.00 39 1011.9
20260508033256 48 225 11.0 20.0 0.00 0.00 0.00 39 1011.9
20260508032747 48 225 13.0 20.0 0.00 0.00 0.00 38 1011.8
20260508031727 49 225 13.0 20.0 0.00 0.00 0.00 36 1011.8
20260508031216 49 225 15.0 20.0 0.00 0.00 0.00 35 1011.7
20260508030706 48 225 11.0 16.0 0.00 0.00 0.00 37 1011.6
20260508030155 47 248 9.0 15.0 0.00 0.00 0.00 39 1011.3
20260508025135 46 248 7.0 13.0 0.00 0.00 0.00 41 1011.2
20260508024625 46 248 7.0 11.0 0.00 0.00 0.00 41 1011.1
20260508024115 46 248 8.0 11.0 0.00 0.00 0.00 41 1011.0
20260508023604 47 248 5.0 11.0 0.00 0.00 0.00 40 1011.0
20260508023055 47 225 6.0 13.0 0.00 0.00 0.00 39 1011.1
20260508022544 47 248 6.0 13.0 0.00 0.00 0.00 39 1010.8
20260508022035 47 270 2.0 9.0 0.00 0.00 0.00 41 1011.0
20260508021525 47 248 4.0 9.0 0.00 0.00 0.00 41 1010.7
20260508021014 46 293 1.0 7.0 0.00 0.00 0.00 42 1010.4
20260508020504 46 270 2.0 7.0 0.00 0.00 0.00 42 1010.3
20260508015954 46 270 1.0 7.0 0.00 0.00 0.00 43 1010.1
20260508015443 46 270 1.0 8.0 0.00 0.00 0.00 43 1010.2
20260508014934 46 248 0.0 8.0 0.00 0.00 0.00 42 1009.8
20260508014423 46 248 1.0 8.0 0.00 0.00 0.00 43 1009.9
20260508013913 46 248 4.0 8.0 0.00 0.00 0.00 43 1009.4
20260508013403 46 248 4.0 9.0 0.00 0.00 0.00 44 1009.0
20260508011323 44 248 4.0 8.0 0.00 0.00 0.00 46 1009.2
20260508010813 42 248 1.0 4.0 0.00 0.00 0.00 49 1009.1
20260508010302 42 270 0.0 7.0 0.00 0.00 0.00 50 1009.1
20260508005752 44 270 1.0 11.0 0.00 0.00 0.00 45 1009.3
20260508005243 44 248 6.0 11.0 0.00 0.00 0.00 46 1009.2
20260508004732 40 203 3.0 6.0 0.00 0.00 0.00 53 1008.9
20260508004225 36 180 0.0 4.0 0.00 0.00 0.00 59 1008.9
20260508003712 38 180 0.0 2.0 0.00 0.00 0.00 56 1008.5
20260508003202 41 270 0.0 4.0 0.00 0.00 0.00 50 1008.8
20260508002651 40 293 1.0 4.0 0.00 0.00 0.00 52 1008.9
20260508001121 42 270 0.0 2.0 0.00 0.00 0.00 48 1008.6
20260508000611 43 270 0.0 2.0 0.00 0.00 0.00 45 1008.5
20260507235551 43 293 0.0 4.0 0.00 0.00 0.00 47 1008.8
20260507234539 44 248 2.0 4.0 0.00 0.00 0.00 43 1008.9
20260507234020 44 248 2.0 4.0 0.00 0.00 0.00 43 1009.1
20260507233512 44 248 2.0 4.0 0.00 0.00 0.00 44 1008.9
20260507232450 45 248 0.0 4.0 0.00 0.00 0.00 43 1008.9
20260507231941 45 248 0.0 6.0 0.00 0.00 0.00 42 1008.9
20260507230920 45 248 0.0 2.0 0.00 0.00 0.00 42 1008.8
20260507230410 45 248 1.0 4.0 0.00 0.00 0.00 41 1008.4